Location: Aldenham
(51.6667°N, 0.3500°W)
Time: 08:19:34
(UTC+00:00)

Explorer 7 - Pass Details

Date: 14 February 2026
Orbit: 430 x 541 km, 50.2° (Epoch: 12 March)

Event Time Altitude Azimuth Distance (km) Brightness Sun altitude
Rises 19:48:10 0° 272° (W) 2,532 11.6 -24.3°
Reaches altitude 10° 19:50:18 10° 270° (W) 1,673 10.3 -24.6°
Enters shadow 19:53:08 47° 252° (WSW) 667 7.5 -25.1°
Maximum altitude 19:54:04 69° 187° (S) 540 - -25.2°
Drops below altitude 10° 19:58:00 10° 104° (ESE) 1,741 - -25.8°
Sets 20:00:16 0° 102° (ESE) 2,646 - -26.1°
